Weather History for Saranac Lake, NY

Change the Weather History Date:

Saturday, March 9, 2013

  Actual Average Record
Temperature  
Mean Temperature 25 °F 21 °F  
Max Temperature 49 °F 34 °F 58 °F (1977)
Min Temperature 0 °F 9 °F -27 °F (2007)
Degree Days  
Heating Degree Days 40 44  
Month to date heating degree days 374 407  
Since 1 July heating degree days 6631 7112  
Cooling Degree Days 0 0  
Month to date cooling degree days 0 0  
Year to date cooling degree days 0 0  
Moisture  
Dew Point 11 °F    
Average Humidity 63    
Maximum Humidity 100    
Minimum Humidity 26    
Precipitation  
Precipitation 0.00 in 0.07 in 0.55 in (1961)
Month to date precipitation 0.13 0.49  
Year to date precipitation 2.02 4.23  
Sea Level Pressure  
Sea Level Pressure 30.33 in    
Wind  
Wind Speed 1 mph (North)    
Max Wind Speed 5 mph    
Max Gust Speed -    
Visibility 10 miles    
Events      
T = Trace of Precipitation, MM = Missing Value Source: NWS Daily Summary

Daily Weather History Graph

Daily Weather History Graph

Search for Another Location

Airport:

Trip Planner

Search our weather history database for the weather conditions in past years. The results will help you decide how hot, cold, wet, or windy it might be!

Date:

Astronomy

Mar. 09, 2013 Rise Set
Actual Time 6:19 AM EST 5:55 PM EST
Civil Twilight 5:50 AM EST 6:24 PM EST
Nautical Twilight 5:17 AM EST 6:58 PM EST
Astronomical Twilight 4:43 AM EST 7:32 PM EST
Moon 4:46 AM EST (3/9) 3:51 PM EST (3/9)
Length of Visible Light 12h 33m
Length of Day
11h 35m
Waning Crescent, 5% of the Moon is Illuminated
Mar 9
Waning Crescent
Mar 11
New
Mar 19
First Quarter
Mar 27
Full
Apr 3
Last Quarter

Hourly Weather History & Observations

Time (EST) Temp. Windchill Dew Point Humidity Pressure Visibility Wind Dir Wind Speed Gust Speed Precip Events Conditions
12:51 AM 9.0 °F - 7.0 °F 92% 30.35 in 10.0 mi Calm Calm - N/A   Clear
1:51 AM 6.1 °F - 3.9 °F 91% 30.35 in 10.0 mi Calm Calm - N/A   Clear
2:29 AM 6.8 °F - 3.2 °F 85% 30.25 in 10.0 mi Calm Calm - N/A   Scattered Clouds
2:46 AM 5.0 °F - 1.4 °F 85% 30.25 in 10.0 mi Calm Calm - N/A   Mostly Cloudy
2:51 AM 5.0 °F - 1.0 °F 84% 30.34 in 10.0 mi Calm Calm - N/A   Mostly Cloudy
3:51 AM 3.9 °F - -0.0 °F 84% 30.34 in 10.0 mi Calm Calm - N/A   Scattered Clouds
4:18 AM 1.4 °F - -0.4 °F 92% 30.25 in 10.0 mi Calm Calm - N/A   Mostly Cloudy
4:51 AM 3.0 °F - -2.0 °F 80% 30.35 in 10.0 mi Calm Calm - N/A   Scattered Clouds
5:51 AM 1.9 °F - -2.9 °F 80% 30.37 in 10.0 mi Calm Calm - N/A   Clear
7:51 AM 7.0 °F - 6.1 °F 96% 30.38 in 10.0 mi Calm Calm - N/A   Clear
8:51 AM 21.0 °F - 18.0 °F 88% 30.38 in 10.0 mi Calm Calm - N/A   Clear
10:51 AM 36.0 °F - 18.0 °F 48% 30.38 in 10.0 mi Calm Calm - N/A   Clear
11:51 AM 39.9 °F - 16.0 °F 38% 30.35 in 10.0 mi Calm Calm - N/A   Clear
12:51 PM 44.1 °F - 15.1 °F 31% 30.32 in 10.0 mi Calm Calm - N/A   Clear
1:51 PM 46.9 °F - 14.0 °F 27% 30.31 in 10.0 mi Calm Calm - N/A   Clear
2:51 PM 46.9 °F - 14.0 °F 27% 30.31 in 10.0 mi Calm Calm - N/A   Clear
3:51 PM 48.9 °F - 15.1 °F 26% 30.30 in 10.0 mi Variable 4.6 mph - N/A   Clear
4:51 PM 46.9 °F - 17.1 °F 30% 30.32 in 10.0 mi North 4.6 mph - N/A   Clear
5:51 PM 42.1 °F 40.2 °F 19.0 °F 40% 30.34 in 10.0 mi North 3.5 mph - N/A   Clear
6:51 PM 30.9 °F - 19.9 °F 64% 30.35 in 10.0 mi Calm Calm - N/A   Clear
7:51 PM 30.0 °F 26.5 °F 19.9 °F 66% 30.35 in 10.0 mi North 3.5 mph - N/A   Clear
8:51 PM 25.0 °F - 19.9 °F 81% 30.34 in 10.0 mi Calm Calm - N/A   Clear
9:51 PM 23.0 °F - 19.0 °F 85% 30.33 in 10.0 mi Calm Calm - N/A   Clear
10:51 PM 19.0 °F - 17.1 °F 92% 30.33 in 10.0 mi Calm Calm - N/A   Clear
11:51 PM 18.0 °F - 16.0 °F 92% 30.32 in 10.0 mi Calm Calm - N/A   Clear